Change the Weather History Date:

Wednesday, October 12, 2011

  Actual Average Record
Temperature  
Mean Temperature 66 °F 56 °F  
Max Temperature 77 °F 69 °F 92 °F (1975)
Min Temperature 54 °F 44 °F 27 °F (1987)
Degree Days  
Heating Degree Days 0 9  
Month to date heating degree days 26 95  
Since 1 July heating degree days 79 175  
Cooling Degree Days 1 1  
Month to date cooling degree days 32 17  
Year to date cooling degree days 491 1216  
Growing Degree Days 16 (Base 50)    
Moisture  
Dew Point 56 °F    
Average Humidity 70    
Maximum Humidity 93    
Minimum Humidity 46    
Precipitation  
Precipitation 0.05 in 0.10 in 1.79 in (1957)
Month to date precipitation 0.10 1.10  
Year to date precipitation 13.93 30.82  
Sea Level Pressure  
Sea Level Pressure 29.70 in    
Wind  
Wind Speed 7 mph (SW)    
Max Wind Speed 21 mph    
Max Gust Speed 28 mph    
Visibility 8 miles    
Events Rain    
T = Trace of Precipitation, MM = Missing Value Source: NWS Daily Summary

Daily Weather History Graph

Daily Weather History Graph

Search for Another Location

Airport or City:

Trip Planner

Search our weather history database for the weather conditions in past years. The results will help you decide how hot, cold, wet, or windy it might be!

Date:

Astronomy

Oct. 12, 2011 Rise Set
Actual Time 7:26 AM CDT 6:45 PM CDT
Civil Twilight 6:59 AM CDT 7:12 PM CDT
Nautical Twilight 6:28 AM CDT 7:43 PM CDT
Astronomical Twilight 5:56 AM CDT 8:14 PM CDT
Moon 6:47 PM CDT (10/12) 8:02 AM CDT (10/12)
Length of Visible Light 12h 12m
Length of Day
11h 18m
Full, 100% of the Moon is Illuminated
Oct 12
Full
Oct 19
Last Quarter
Oct 26
New
Nov 2
First Quarter
Nov 10
Full

Hourly Weather History & Observations

Time (CDT) Temp. Dew Point Humidity Pressure Visibility Wind Dir Wind Speed Gust Speed Precip Events Conditions
12:53 AM 63.0 °F 57.9 °F 84% 29.76 in 10.0 mi South 5.8 mph - N/A   Clear
1:53 AM 64.0 °F 59.0 °F 84% 29.75 in 10.0 mi South 5.8 mph - N/A   Clear
2:53 AM 63.0 °F 57.9 °F 84% 29.74 in 10.0 mi SSW 4.6 mph - N/A   Clear
3:53 AM 62.1 °F 57.9 °F 86% 29.74 in 10.0 mi SSE 4.6 mph - N/A   Mostly Cloudy
4:53 AM 61.0 °F 57.9 °F 90% 29.72 in 10.0 mi South 6.9 mph - N/A   Partly Cloudy
5:53 AM 62.1 °F 59.0 °F 90% 29.73 in 10.0 mi SSW 4.6 mph - N/A   Overcast
6:53 AM 62.1 °F 59.0 °F 90% 29.73 in 9.0 mi SSW 8.1 mph - 0.01 in Rain Light Rain
7:53 AM 61.0 °F 59.0 °F 93% 29.69 in 10.0 mi West 5.8 mph - 0.00 in Rain Light Rain
8:53 AM 62.1 °F 60.1 °F 93% 29.70 in 10.0 mi SE 9.2 mph - 0.00 in   Partly Cloudy
10:48 AM 66.2 °F 57.2 °F 73% 29.72 in 10.0 mi SSE 6.9 mph - N/A   Mostly Cloudy
10:53 AM 64.9 °F 57.0 °F 75% 29.71 in 10.0 mi South 4.6 mph - N/A   Scattered Clouds
11:12 AM 66.2 °F 57.2 °F 73% 29.72 in 10.0 mi SSW 5.8 mph - N/A   Mostly Cloudy
11:53 AM 69.1 °F 57.0 °F 65% 29.70 in 10.0 mi South 4.6 mph - N/A   Mostly Cloudy
12:32 PM 71.6 °F 55.4 °F 57% 29.71 in 10.0 mi SW 4.6 mph - N/A   Scattered Clouds
12:53 PM 71.1 °F 55.9 °F 59% 29.69 in 8.0 mi Variable 4.6 mph - N/A   Scattered Clouds
1:04 PM 71.6 °F 55.4 °F 57% 29.70 in 2.0 mi SW 6.9 mph - N/A   Haze
1:21 PM 71.6 °F 57.2 °F 60% 29.70 in 5.0 mi South 5.8 mph - N/A   Haze
1:53 PM 71.6 °F 55.4 °F 57% 29.69 in 10.0 mi Variable 3.5 mph - N/A   Mostly Cloudy
2:53 PM 73.9 °F 55.0 °F 52% 29.64 in 8.0 mi Variable 5.8 mph - N/A   Mostly Cloudy
3:04 PM 73.4 °F 55.4 °F 53% 29.65 in 2.5 mi WSW 5.8 mph - N/A   Haze
3:12 PM 73.4 °F 55.4 °F 53% 29.65 in 7.0 mi WSW 4.6 mph - N/A   Scattered Clouds
3:53 PM 75.0 °F 54.0 °F 48% 29.63 in 7.0 mi West 8.1 mph - N/A   Mostly Cloudy
4:25 PM 75.2 °F 53.6 °F 47% 29.64 in 1.8 mi WNW 16.1 mph 21.9 mph N/A   Haze
4:53 PM 73.9 °F 53.1 °F 48% 29.63 in 1.5 mi NW 15.0 mph 23.0 mph N/A   Haze
5:51 PM 69.8 °F 55.4 °F 60% 29.66 in 3.0 mi NW 16.1 mph 25.3 mph N/A   Haze
5:53 PM 70.0 °F 55.0 °F 59% 29.65 in 6.0 mi WNW 17.3 mph 25.3 mph N/A   Haze
6:53 PM 66.9 °F 55.9 °F 68% 29.68 in 10.0 mi NNW 15.0 mph 20.7 mph N/A   Clear
7:53 PM 64.9 °F 55.9 °F 73% 29.72 in 10.0 mi North 6.9 mph - N/A   Mostly Cloudy
8:53 PM 64.0 °F 54.0 °F 70% 29.73 in 10.0 mi North 11.5 mph - N/A   Scattered Clouds
9:53 PM 59.0 °F 53.1 °F 81% 29.76 in 7.0 mi North 10.4 mph 24.2 mph 0.02 in Rain Rain
10:53 PM 57.0 °F 55.0 °F 93% 29.76 in 10.0 mi Calm Calm - 0.02 in   Mostly Cloudy
11:53 PM 55.9 °F 53.1 °F 90% 29.76 in 10.0 mi Calm Calm - N/A   Clear